Weather History for Sable Island, NS

Change the Weather History Date:

Wednesday, December 12, 2012

  Actual Average Record
Temperature  
Mean Temperature 39 °F -  
Max Temperature 43 °F 42 °F 53 °F (2000)
Min Temperature 35 °F 32 °F 19 °F (2013)
Degree Days  
Heating Degree Days 26    
Moisture  
Dew Point 31 °F    
Average Humidity 68    
Maximum Humidity 87    
Minimum Humidity 40    
Precipitation  
Precipitation 0.00 in - - ()
Sea Level Pressure  
Sea Level Pressure 30.08 in    
Wind  
Wind Speed 12 mph ()    
Max Wind Speed 17 mph    
Max Gust Speed 23 mph    
Visibility 9.0 miles    
Events      
Averages and records for this station are not official NWS values.
T = Trace of Precipitation, MM = Missing Value Source: Averaged Metar Reports

Daily Weather History Graph

Daily Weather History Graph

Search for Another Location

Airport:

Trip Planner

Search our weather history database for the weather conditions in past years. The results will help you decide how hot, cold, wet, or windy it might be!

Date:

Astronomy

Dec. 12, 2012 Rise Set
Actual Time 7:25 AM AST 4:22 PM AST
Civil Twilight 6:52 AM AST 4:55 PM AST
Nautical Twilight 6:16 AM AST 5:31 PM AST
Astronomical Twilight 5:41 AM AST 6:06 PM AST
Moon 6:23 AM AST (12/12) 3:54 PM AST (12/12)
Length of Visible Light 10h 02m
Length of Day
8h 56m
Waning Crescent, 1% of the Moon is Illuminated
Dec 12
Waning Crescent
Dec 13
New
Dec 20
First Quarter
Dec 28
Full
Jan 4
Last Quarter

Hourly Weather History & Observations

Time (AST) Temp. Windchill Dew Point Humidity Pressure Visibility Wind Dir Wind Speed Gust Speed Precip Events Conditions
12:00 AM 46.4 °F 41.1 °F 42.8 °F 87% 29.90 in 9.0 mi NNW 11.5 mph 18.4 mph N/A   Overcast
12:12 AM 44.6 °F 38.4 °F 41.0 °F 87% 29.89 in 9.0 mi NNW 12.7 mph - N/A   Overcast
12:18 AM 44.6 °F 38.8 °F 41.0 °F 87% 29.90 in 9.0 mi NNW 11.5 mph - N/A   Mostly Cloudy
12:21 AM 44.6 °F 39.2 °F 41.0 °F 87% 29.89 in 9.0 mi NNW 10.4 mph - N/A   Mostly Cloudy
12:34 AM 44.6 °F 39.2 °F 41.0 °F 87% 29.90 in 9.0 mi NNW 10.4 mph - N/A   Scattered Clouds
12:45 AM 44.6 °F 38.8 °F 41.0 °F 87% 29.90 in 9.0 mi NNW 11.5 mph - N/A   Mostly Cloudy
12:47 AM 44.6 °F 38.8 °F 41.0 °F 87% 29.90 in 9.0 mi North 11.5 mph - N/A   Mostly Cloudy
1:00 AM 44.6 °F 39.7 °F 39.2 °F 81% 29.92 in 9.0 mi NNW 9.2 mph 17.3 mph N/A   Overcast
2:00 AM 43 °F - 38 °F 77% 29.94 in 9 mi NNW 15.0 mph - -   Overcast
2:00 AM 42.8 °F 35.8 °F 37.4 °F 81% 29.94 in 9.0 mi NNW 13.8 mph - N/A   Overcast
2:32 AM 42.8 °F 35.8 °F 37.4 °F 81% 29.95 in 9.0 mi NW 13.8 mph - N/A   Scattered Clouds
2:34 AM 42.8 °F 36.6 °F 37.4 °F 81% 29.95 in 9.0 mi NW 11.5 mph 18.4 mph N/A   Overcast
3:00 AM 42.8 °F 35.8 °F 37.4 °F 81% 29.96 in 9.0 mi NW 13.8 mph - N/A   Mostly Cloudy
4:00 AM 41.0 °F 33.1 °F 35.6 °F 81% 29.98 in 9.0 mi NW 15.0 mph - N/A   Overcast
5:00 AM 41 °F - 33 °F 62% 30.01 in 9 mi NW 17.3 mph - -   Overcast
5:00 AM 41.0 °F 32.5 °F 32.0 °F 70% 30.01 in 9.0 mi WNW 17.3 mph - N/A   Overcast
6:00 AM 39.2 °F 30.8 °F 32.0 °F 75% 30.03 in 9.0 mi NW 15.0 mph - N/A   Overcast
7:00 AM 39.2 °F 31.6 °F 30.2 °F 70% 30.06 in 9.0 mi NW 12.7 mph - N/A   Overcast
8:00 AM 38 °F - 29 °F 62% 30.09 in 9 mi NNW 13.8 mph - -   Overcast
8:00 AM 39.2 °F 32.0 °F 30.2 °F 70% 30.09 in 9.0 mi NNW 11.5 mph 18.4 mph N/A   Overcast
9:00 AM 37.4 °F 29.3 °F 26.6 °F 65% 30.11 in 9.0 mi NW 12.7 mph - N/A   Overcast
9:26 AM 39.2 °F 32.5 °F 28.4 °F 65% 30.12 in 9.0 mi WNW 10.4 mph - N/A   Mostly Cloudy
9:34 AM 39.2 °F 32.5 °F 28.4 °F 65% 30.12 in 9.0 mi NW 10.4 mph 17.3 mph N/A   Mostly Cloudy
10:00 AM 39.2 °F 32.0 °F 28.4 °F 65% 30.14 in 9.0 mi NW 11.5 mph - N/A   Mostly Cloudy
10:44 AM 39.2 °F 31.6 °F 28.4 °F 65% 30.13 in 9.0 mi NW 12.7 mph - N/A   Partly Cloudy
11:00 AM 39 °F - 27 °F 51% 30.14 in 9 mi WNW 13.8 mph - -  
11:00 AM 39.2 °F 31.6 °F 26.6 °F 61% 30.14 in 9.0 mi WNW 12.7 mph 18.4 mph N/A   Scattered Clouds
11:02 AM 39.2 °F 31.6 °F 28.4 °F 65% 30.13 in 9.0 mi NW 12.7 mph - N/A   Mostly Cloudy
11:22 AM 39.2 °F 31.6 °F 26.6 °F 61% 30.13 in 9.0 mi WNW 12.7 mph 18.4 mph N/A   Partly Cloudy
12:00 PM 39.2 °F 31.6 °F 28.4 °F 65% 30.14 in 9.0 mi NW 12.7 mph - N/A   Partly Cloudy
1:00 PM 39.2 °F 30.5 °F 28.4 °F 65% 30.14 in 9.0 mi NW 16.1 mph - N/A   Scattered Clouds
1:04 PM 39.2 °F 30.5 °F 28.4 °F 65% 30.13 in 9.0 mi NW 16.1 mph - N/A   Mostly Cloudy
1:33 PM 39.2 °F 30.5 °F 28.4 °F 65% 30.14 in 9.0 mi NW 16.1 mph - N/A   Scattered Clouds
1:49 PM 39.2 °F 32.0 °F 28.4 °F 65% 30.14 in 9.0 mi NW 11.5 mph 20.7 mph N/A   Mostly Cloudy
2:00 PM 38 °F - 28 °F 57% 30.14 in 9 mi NW 15.0 mph - -  
2:00 PM 37.4 °F 28.5 °F 28.4 °F 70% 30.14 in 9.0 mi NW 15.0 mph - N/A   Mostly Cloudy
3:00 PM 37.4 °F 27.8 °F 26.6 °F 65% 30.16 in 9.0 mi NW 17.3 mph - N/A   Mostly Cloudy
3:01 PM 37.4 °F 27.8 °F 26.6 °F 65% 30.15 in 9.0 mi NW 17.3 mph - N/A   Scattered Clouds
3:10 PM 37.4 °F 28.5 °F 28.4 °F 70% 30.15 in 9.0 mi NW 15.0 mph 21.9 mph N/A   Mostly Cloudy
3:23 PM 37.4 °F 28.2 °F 26.6 °F 65% 30.16 in 9.0 mi NW 16.1 mph - N/A   Partly Cloudy
4:00 PM 35.6 °F 27.1 °F 26.6 °F 70% 30.17 in 9.0 mi NW 12.7 mph - N/A   Clear
5:00 PM 36 °F - 26 °F 57% 30.18 in 9 mi NW 13.8 mph - -  
5:00 PM 35.6 °F 26.6 °F 26.6 °F 70% 30.18 in 9.0 mi NW 13.8 mph - N/A   Partly Cloudy
6:00 PM 35.6 °F 27.1 °F 26.6 °F 70% 30.19 in 9.0 mi NW 12.7 mph 19.6 mph N/A   Clear
7:00 PM 37.4 °F 28.9 °F 24.8 °F 60% 30.21 in 9.0 mi NW 13.8 mph 19.6 mph N/A   Clear
8:00 PM 38 °F - 23 °F 41% 30.22 in 9 mi NW 16.1 mph - -  
8:00 PM 37.4 °F 28.2 °F 23.0 °F 56% 30.22 in 9.0 mi NW 16.1 mph - N/A   Clear
9:00 PM 37.4 °F 28.2 °F 24.8 °F 60% 30.22 in 9.0 mi NW 16.1 mph 21.9 mph N/A   Partly Cloudy
10:00 PM 37.4 °F 28.5 °F 23.0 °F 56% 30.23 in 9.0 mi NW 15.0 mph 21.9 mph N/A   Clear
11:00 PM 36 °F - 20 °F 40% 30.24 in 9 mi NW 15.0 mph - -  
11:00 PM 37.4 °F 28.9 °F 21.2 °F 52% 30.24 in 9.0 mi NW 13.8 mph 23.0 mph N/A   Partly Cloudy